Orbital Elements at Epoch 2459200.5 (2020-Dec-17.0) TDB
Reference: JPL 32 (heliocentric ecliptic J2000)
Element | Value | Uncertainty (1-sigma) | Units |
e | .1607991971191167 | 3.8626e-08 | |
a | 2.421194971981297 | 7.5769e-09 | au |
q | 2.031868764417862 | 9.4416e-08 | au |
i | 1.246433934228046 | 4.1872e-06 | deg |
node | 222.9340407925579 | 0.00016148 | deg |
peri | 308.4986829304137 | 0.00016187 | deg |
M | 356.3662068938011 | 1.0829e-05 | deg |
tp | 2459214.389952731435 (2020-Dec-30.88995273) | 4.1406e-05 | TDB |
period | 1376.078064209708 3.77 | 6.4594e-06 1.768e-08 | d yr |
n | .2616130649584555 | 1.228e-09 | deg/d |
Q | 2.810521179544732 | 8.7952e-09 | au |
|
| | Orbit Determination Parameters
Additional Information
|